IRIDIUM 21 [P] (25778 NORAD) Tracking and Keplerian Element Data

This shows tracking and keplerian element data for the satellite.

Feedback or suggestion? Click here.




ElementValue
Catalog25778
NameIRIDIUM 21 [P]
Epoch Orbit99729
Epoch Day144.44594513
Epoch Year2018
RAAN79.2426
Inclination86.3734
Eccentricity0.0032893
Argument of Perigee109.9165
Mean Anonmoly250.5695
Mean Motion16.46222338
Decay Rate0.15447225
L11 25778U 99032B 18144.44594513 .15447225 -16899-5 20154-3 0 9999
L22 25778 86.3734 79.2426 0032893 109.9165 250.5695 16.46222338997293

Live tracking and technical data element details for IRIDIUM 21 [P] (NORAD 25778). IRIDIUM 21 [P] can be tracked NOW for your location showing map with azimuth and elevation plus other details from your city location.

Track the satellite on the map from your city or location and see movement details for azimuth, elevation, latitude, longitude, range, height, and movement on the map or in text.







IsCatalogInMostPopularTable: catalog: 25778, numindb: 29
Update: records affected: 1



GetName: 25778 IRIDIUM 21 [P]

Hit Count: updated at: Fri, 20 Jul 2018 07:04:13 GMT